Fargo, ND

10:07 PM CDT on September 30, 2016 (GMT -0500)
Hector International

Weather History for KFAR - February, 2014

Change the Weather History Date:

Sunday, February 9, 2014

  Actual Average Record
Temperature  
Mean Temperature -7 °F 12 °F  
Max Temperature 0 °F 22 °F 42 °F (1918)
Min Temperature -14 °F 3 °F -47 °F (1888)
Degree Days  
Heating Degree Days 72 53  
Month to date heating degree days 586 483  
Since 1 July heating degree days 6178 5751  
Cooling Degree Days 0 0  
Month to date cooling degree days 0 0  
Year to date cooling degree days 0 0  
Moisture  
Dew Point -15 °F    
Average Humidity 69    
Maximum Humidity 79    
Minimum Humidity 58    
Precipitation  
Precipitation 0.00 in 0.01 in 0.26 in (2009)
Month to date precipitation T 0.15  
Year to date precipitation 0.77 0.85  
Snow  
Snow 0.00 in 0.20 in 3.00 in (1939)
Month to date snowfall T 2.1  
Since 1 July snowfall 26.1 33.1  
Snow Depth 12.00 in    
Sea Level Pressure  
Sea Level Pressure 30.46 in    
Wind  
Wind Speed 7 mph (WNW)    
Max Wind Speed 17 mph    
Max Gust Speed 20 mph    
Visibility 10 miles    
Events      
T = Trace of Precipitation, MM = Missing Value Source: NWS Daily Summary

Daily Weather History Graph

Daily Weather History Graph

Search for Another Location

Airport or City:

Trip Planner

Search our weather history database for the weather conditions in past years. The results will help you decide how hot, cold, wet, or windy it might be!

Date:

Astronomy

Feb. 09, 2014 Rise Set
Actual Time 7:40 AM CST 5:42 PM CST
Civil Twilight 7:09 AM CST 6:14 PM CST
Nautical Twilight 6:33 AM CST 6:50 PM CST
Astronomical Twilight 5:57 AM CST 7:25 PM CST
Moon 1:17 PM CST (2/9) 3:53 AM CST (2/9)
Length of Visible Light 11h 05m
Length of Day
10h 01m
Waxing Gibbous, 77% of the Moon is Illuminated
Feb 9
Waxing Gibbous
Feb 14
Full
Feb 22
Last Quarter
Mar 1
New
Mar 8
First Quarter

Hourly Weather History & Observations

Time (CST) Temp. Windchill Dew Point Humidity Pressure Visibility Wind Dir Wind Speed Gust Speed Precip Events Conditions
12:53 AM -8.0 °F -19.2 °F -14.1 °F 75% 30.40 in 10.0 mi NNW 4.6 mph - N/A   Clear
1:53 AM -9.0 °F -20.4 °F -15.0 °F 75% 30.41 in 10.0 mi NW 4.6 mph - N/A   Clear
2:53 AM -9.9 °F -19.2 °F -16.1 °F 74% 30.42 in 10.0 mi WSW 3.5 mph - N/A   Clear
3:53 AM -11.0 °F -27.6 °F -17.0 °F 75% 30.41 in 10.0 mi WSW 8.1 mph - N/A   Clear
4:53 AM -11.0 °F -24.6 °F -16.1 °F 78% 30.40 in 10.0 mi West 5.8 mph - N/A   Clear
5:34 AM -11.2 °F -20.6 °F -18.4 °F 70% 30.31 in 10.0 mi WNW 3.5 mph - N/A   Mostly Cloudy
5:50 AM -13.0 °F - -18.4 °F 77% 30.31 in 10.0 mi Calm Calm - N/A   Scattered Clouds
5:53 AM -11.9 °F - -18.0 °F 74% 30.40 in 10.0 mi Calm Calm - N/A   Scattered Clouds
6:53 AM -11.9 °F -27.3 °F -18.0 °F 74% 30.41 in 10.0 mi WNW 6.9 mph - N/A   Clear
7:53 AM -11.0 °F -27.6 °F -17.0 °F 75% 30.42 in 10.0 mi WNW 8.1 mph - N/A   Clear
8:53 AM -9.0 °F -22.3 °F -16.1 °F 71% 30.43 in 10.0 mi West 5.8 mph - N/A   Clear
9:53 AM -7.1 °F -25.0 °F -15.0 °F 68% 30.46 in 10.0 mi WNW 10.4 mph - N/A   Clear
10:53 AM -5.1 °F -22.5 °F -14.1 °F 65% 30.47 in 10.0 mi NNW 10.4 mph - N/A   Clear
11:53 AM -2.9 °F -19.8 °F -13.0 °F 62% 30.48 in 10.0 mi NNW 10.4 mph - N/A   Clear
12:53 PM -2.0 °F -18.7 °F -11.9 °F 63% 30.47 in 10.0 mi NW 10.4 mph - N/A   Clear
1:53 PM -0.9 °F -19.1 °F -9.9 °F 66% 30.46 in 10.0 mi NW 12.7 mph - N/A   Clear
2:53 PM -0.0 °F -18.0 °F -9.9 °F 63% 30.46 in 10.0 mi NW 12.7 mph - N/A   Clear
3:53 PM -0.9 °F -20.6 °F -11.0 °F 62% 30.47 in 10.0 mi NNW 15.0 mph - N/A   Clear
4:53 PM -2.9 °F -17.7 °F -11.9 °F 65% 30.49 in 10.0 mi North 8.1 mph - N/A   Clear
5:53 PM -6.0 °F - -14.1 °F 68% 30.51 in 10.0 mi Calm Calm - N/A   Clear
6:53 PM -6.0 °F - -14.1 °F 68% 30.52 in 10.0 mi Calm Calm - N/A   Clear
7:53 PM -9.0 °F -20.4 °F -16.1 °F 71% 30.52 in 10.0 mi West 4.6 mph - N/A   Clear
8:53 PM -9.0 °F -22.3 °F -16.1 °F 71% 30.52 in 10.0 mi WNW 5.8 mph - N/A   Clear
9:53 PM -11.9 °F -23.8 °F -18.9 °F 71% 30.53 in 10.0 mi West 4.6 mph - N/A   Clear
10:53 PM -14.1 °F -29.9 °F -20.0 °F 75% 30.53 in 10.0 mi West 6.9 mph - N/A   Clear
11:53 PM -13.0 °F -27.0 °F -20.0 °F 71% 30.54 in 10.0 mi West 5.8 mph - N/A   Clear